Regional Weather Roundup
Issued by NWS

Home | Current Version | Previous Version | Graphics & Text | Print | Product List | Glossary On
Versions: 1 2 3 4 5 6 7 8 9 10 11 12 13 14 15 16 17 18 19 20 21 22 23 24 25 26 27 28 29 30 31 32 33 34 35 36 37 38 39 40 41 42 43 44 45 46 47 48 49 50
356
ASUS43 KOAX 260110
RWRNE

WEATHER ROUNDUP FOR NEBRASKA
NATIONAL WEATHER SERVICE OMAHA NE
800 PM CDT SUN SEP 25 2016

NOTES: SATELLITE DATA IS BEING USED TO AUGMENT CLOUD COVER ABOVE
       12000 FEET.
       "FAIR" INDICATES FEW OR NO CLOUDS BELOW 12,000 FEET WITH NO
       SIGNIFICANT WEATHER AND/OR OBSTRUCTIONS TO VISIBILITY.

  * THESE STATIONS DO NOT REPORT WEATHER SUCH AS RAIN...SNOW OR FOG.

NEZ001>004-019>022-054>056-260200-
NEBRASKA PANHANDLE

CITY           SKY/WX    TMP DP  RH WIND       PRES   REMARKS
SCOTTSBLUFF    CLEAR     56  39  53 N5        30.35S
ALLIANCE       CLEAR     53  30  41 N6        30.34S
CHADRON        CLEAR     57  31  37 NW8       30.33S
KIMBALL        CLEAR     53  39  58 NE6       30.39R
SIDNEY         CLEAR     55  35  47 N7        30.38R
$$

NEZ057>060-069>072-079>082-260200-
SOUTHWEST NEBRASKA

CITY           SKY/WX    TMP DP  RH WIND       PRES   REMARKS
NORTH PLATTE   CLEAR     57  24  28 N6        30.31R
IMPERIAL       CLEAR     60  32  34 N8        30.34R
LEXINGTON      CLEAR     59  24  25 N8        30.30R
MCCOOK         CLEAR     58  24  27 N10       30.30R
OGALLALA       CLEAR     60  31  34 N8        30.34R
$$

NEZ005>010-023>029-035>040-094-260200-
NORTH CENTRAL NEBRASKA

CITY           SKY/WX    TMP DP  RH WIND       PRES   REMARKS
VALENTINE      CLEAR     58  26  29 NW10      30.29R
AINSWORTH      CLEAR     58  29  32 NW8       30.28S
BROKEN BOW     CLEAR     58  23  26 NW9       30.28R
O`NEILL        CLEAR     58  28  30 NW7       30.25R
ORD            CLEAR     55  32  41 NW8       30.25R
THEDFORD       CLEAR     56  29  35 N6        30.32R
$$

NEZ041-046>049-061>064-073>077-083>087-260200-
SOUTH CENTRAL NEBRASKA

CITY           SKY/WX    TMP DP  RH WIND       PRES   REMARKS
GRAND ISLAND   CLEAR     57  33  40 NW7       30.25R
AURORA         CLEAR     57  38  49 NW7       30.24R
HASTINGS       CLEAR     59  32  36 NW6       30.26R
HEBRON         CLEAR     60  37  40 N3        30.23R
HOLDREGE       CLEAR     58  26  28 NW6       30.28R
KEARNEY *      CLEAR     61  27  27 NW5       30.26R
YORK           CLEAR     57  36  44 NW7       30.23R
$$

NEZ011>018-030>034-042>045-260200-
NORTHEAST NEBRASKA

CITY           SKY/WX    TMP DP  RH WIND       PRES   REMARKS
NORFOLK        CLEAR     58  34  40 NW8       30.21R
ALBION         CLEAR     56  33  42 NW6       30.24R
BLAIR          CLEAR     63  42  47 NW6       30.17R
FREMONT        CLEAR     57  41  55 NW5       30.19R
TEKAMAH        CLEAR     60  42  51 NW8       30.16R
WAYNE          CLEAR     56  38  51 NW7       30.20R
$$

NEZ050>053-065>068-078-088>093-260200-
SOUTHEAST NEBRASKA

CITY           SKY/WX    TMP DP  RH WIND       PRES   REMARKS
LINCOLN        CLEAR     65  37  35 NW8       30.20R
OMAHA EPPLEY   PTCLDY    63  46  54 NW9       30.16R
BEATRICE       CLEAR     59  44  59 NW8       30.20R
FALLS CITY     CLEAR     63  52  67 NW5       30.16R
NEBRASKA CITY  CLEAR     61  40  45 NW5       30.17R
PLATTSMOUTH    CLEAR     61  44  53 W6        30.17R
$$

NEZ044-045-051>053-067-260200-
OMAHA AREA

CITY           SKY/WX    TMP DP  RH WIND       PRES   REMARKS
OMAHA EPPLEY   PTCLDY    63  46  54 NW9       30.16R
BLAIR          CLEAR     63  42  47 NW6       30.17R
FREMONT        CLEAR     57  41  55 NW5       30.19R
MILLARD        CLEAR     64  46  53 NW5       30.17R
OFFUTT AFB     CLEAR     59  50  71 NW6       30.15R
PLATTSMOUTH    CLEAR     61  44  53 W6        30.17R
WAHOO          FAIR      61  40  45 NW7       30.19R
$$




USA.gov is the U.S. government's official web portal to all federal, state and local government web resources and services.